GAOFEN-4

Last updated on Fri Dec 19 2025 00:02:33 GMT+0000 (Coordinated Universal Time)

1 41194U 15083A 25352.68397319 -.00000310 00000+0 00000+0 0 9992 2 41194 0.1854 81.7464 0002931 93.8356 263.8991 1.00273625 36719
UTC large
Height (km)
Speed (km/s)
/
Latitude / Longitude
Inclination (degrees)
Orbital Period (minutes)
Azimuth
Elevation
Range (km)
Doppler Factor

Next 0 passes for location: London (51.5072 / 0.1276)

Sorry there are no passes over London.